Voltar ao catálogo

STARLINK-11396

AtivoComunicaçõesVLEO
NORAD 62015·PAYLOAD·🇺🇸 United States

Lançado Nov 18, 2024 de Vandenberg Space Force Base

Loading…

Próximas Passagens (próximas 24 horas)

TLE

AtualizadoSource: CelesTrak SupGP

Época: Sep 14, 2026, 21:30 UTC

1 62015C 24213H   26257.89631944  .00023834  00000+0  19625-3 0  2574
2 62015  53.1578 188.3094 0001073  88.2216 333.2131 15.69707562    11

Acompanhe STARLINK-11396 em tempo real com AllMySat

Download on the App Store